Time,TemperatureF,DewpointF,PressureIn,WindDirection,WindDirectionDegrees,WindSpeedMPH,WindSpeedGustMPH,Humidity,HourlyPrecipIn,Conditions,Clouds,dailyrainin,SoftwareType,DateUTC
2013-04-20 00:02:00,41.7,35.8,30.18,NE,45,2.0,4.0,79,0.00,,,0.04,meteohub,2013-04-20 07:02:00,
2013-04-20 00:07:00,41.5,35.8,30.18,WNW,293,4.0,4.0,80,0.00,,,0.00,meteohub,2013-04-20 07:07:00,
2013-04-20 00:12:00,41.5,35.8,30.19,NE,45,2.0,4.0,80,0.00,,,0.00,meteohub,2013-04-20 07:12:00,
2013-04-20 00:17:00,41.2,35.4,30.18,North,0,1.0,4.0,80,0.00,,,0.00,meteohub,2013-04-20 07:17:00,
2013-04-20 00:22:00,41.0,35.2,30.19,NW,315,1.0,4.0,80,0.00,,,0.00,meteohub,2013-04-20 07:22:00,
2013-04-20 00:27:00,40.8,35.4,30.19,North,0,1.0,2.0,81,0.00,,,0.00,meteohub,2013-04-20 07:27:00,
2013-04-20 00:32:00,40.5,35.1,30.19,NE,45,2.0,2.0,81,0.00,,,0.00,meteohub,2013-04-20 07:32:00,
2013-04-20 00:37:00,40.3,34.9,30.19,NNW,338,1.0,2.0,81,0.00,,,0.00,meteohub,2013-04-20 07:37:00,
2013-04-20 00:42:00,40.1,34.7,30.19,NW,315,0.0,2.0,81,0.00,,,0.00,meteohub,2013-04-20 07:42:00,
2013-04-20 00:47:00,39.9,34.5,30.19,NE,45,1.0,2.0,81,0.00,,,0.00,meteohub,2013-04-20 07:47:00,
2013-04-20 00:52:00,39.9,34.5,30.19,South,180,0.0,2.0,81,0.00,,,0.00,meteohub,2013-04-20 07:52:00,
2013-04-20 00:57:00,39.6,34.2,30.19,NE,45,2.0,2.0,81,0.00,,,0.00,meteohub,2013-04-20 07:57:00,
2013-04-20 01:02:00,39.4,34.0,30.19,East,90,0.0,2.0,81,0.00,,,0.00,meteohub,2013-04-20 08:02:00,
2013-04-20 01:07:00,39.0,34.3,30.19,East,90,1.0,2.0,83,0.00,,,0.00,meteohub,2013-04-20 08:07:00,
2013-04-20 01:12:00,38.8,34.2,30.19,South,180,1.0,2.0,83,0.00,,,0.00,meteohub,2013-04-20 08:12:00,
2013-04-20 01:17:00,38.8,34.2,30.19,South,180,1.0,2.0,83,0.00,,,0.00,meteohub,2013-04-20 08:17:00,
2013-04-20 01:22:00,38.5,33.8,30.19,East,90,2.0,2.0,83,0.00,,,0.00,meteohub,2013-04-20 08:22:00,
2013-04-20 01:27:00,38.3,33.6,30.19,SE,135,0.0,2.0,83,0.00,,,0.00,meteohub,2013-04-20 08:27:00,
2013-04-20 01:32:00,38.1,33.8,30.19,North,0,1.0,2.0,84,0.00,,,0.00,meteohub,2013-04-20 08:32:00,
2013-04-20 01:37:00,37.9,33.6,30.19,SW,225,2.0,2.0,84,0.00,,,0.00,meteohub,2013-04-20 08:37:00,
2013-04-20 01:42:00,37.9,33.6,30.19,SW,225,0.0,2.0,84,0.00,,,0.00,meteohub,2013-04-20 08:42:00,
2013-04-20 01:47:00,37.6,33.3,30.18,SW,225,0.0,2.0,84,0.00,,,0.00,meteohub,2013-04-20 08:47:00,
2013-04-20 01:52:00,37.4,33.1,30.18,SW,225,1.0,2.0,84,0.00,,,0.00,meteohub,2013-04-20 08:52:00,
2013-04-20 01:57:00,37.0,31.5,30.18,SW,225,1.0,1.0,80,0.00,,,0.00,meteohub,2013-04-20 08:57:00,
2013-04-20 02:02:00,36.9,31.6,30.18,West,270,3.0,3.0,81,0.00,,,0.00,meteohub,2013-04-20 09:02:00,
2013-04-20 02:07:00,37.0,31.8,30.18,SW,225,1.0,3.0,81,0.00,,,0.00,meteohub,2013-04-20 09:07:00,
2013-04-20 02:12:00,37.0,31.8,30.18,SW,225,1.0,3.0,81,0.00,,,0.00,meteohub,2013-04-20 09:12:00,
2013-04-20 02:17:00,36.7,31.5,30.17,East,90,1.0,3.0,81,0.00,,,0.00,meteohub,2013-04-20 09:17:00,
2013-04-20 02:22:00,36.3,31.1,30.18,SW,225,2.0,2.0,81,0.00,,,0.00,meteohub,2013-04-20 09:22:00,
2013-04-20 02:27:00,36.0,30.7,30.18,SW,225,2.0,2.0,81,0.00,,,0.00,meteohub,2013-04-20 09:27:00,
2013-04-20 02:32:00,35.4,30.6,30.18,SW,225,2.0,2.0,82,0.00,,,0.00,meteohub,2013-04-20 09:32:00,
2013-04-20 02:37:00,35.2,30.4,30.18,South,180,0.0,2.0,82,0.00,,,0.00,meteohub,2013-04-20 09:37:00,
2013-04-20 02:42:00,35.1,30.2,30.18,South,180,0.0,2.0,82,0.00,,,0.00,meteohub,2013-04-20 09:42:00,
2013-04-20 02:47:00,34.7,29.8,30.17,SE,135,2.0,2.0,82,0.00,,,0.00,meteohub,2013-04-20 09:47:00,
2013-04-20 02:52:00,34.7,30.0,30.18,SE,135,0.0,2.0,83,0.00,,,0.00,meteohub,2013-04-20 09:52:00,
2013-04-20 02:57:00,34.7,30.0,30.18,South,180,2.0,2.0,83,0.00,,,0.00,meteohub,2013-04-20 09:57:00,
2013-04-20 03:02:00,34.5,30.2,30.18,SW,225,2.0,2.0,84,0.00,,,0.00,meteohub,2013-04-20 10:02:00,
2013-04-20 03:07:00,34.3,30.0,30.18,North,0,0.0,2.0,84,0.00,,,0.00,meteohub,2013-04-20 10:07:00,
2013-04-20 03:12:00,34.3,30.4,30.19,NE,45,0.0,2.0,85,0.00,,,0.00,meteohub,2013-04-20 10:12:00,
2013-04-20 03:17:00,34.3,30.4,30.18,NE,45,0.0,2.0,85,0.00,,,0.00,meteohub,2013-04-20 10:17:00,
2013-04-20 03:22:00,34.5,30.6,30.18,SE,135,2.0,2.0,85,0.00,,,0.00,meteohub,2013-04-20 10:22:00,
2013-04-20 03:27:00,34.7,30.9,30.18,SW,225,2.0,2.0,86,0.00,,,0.00,meteohub,2013-04-20 10:27:00,
2013-04-20 03:32:00,34.9,31.1,30.18,East,90,0.0,3.0,86,0.00,,,0.00,meteohub,2013-04-20 10:32:00,
2013-04-20 03:37:00,34.9,31.1,30.18,SE,135,2.0,3.0,86,0.00,,,0.00,meteohub,2013-04-20 10:37:00,
2013-04-20 03:42:00,35.1,31.3,30.18,SE,135,0.0,3.0,86,0.00,,,0.00,meteohub,2013-04-20 10:42:00,
2013-04-20 03:47:00,35.2,31.5,30.18,SW,225,2.0,2.0,86,0.00,,,0.00,meteohub,2013-04-20 10:47:00,
2013-04-20 03:52:00,35.4,31.6,30.18,SW,225,0.0,2.0,86,0.00,,,0.00,meteohub,2013-04-20 10:52:00,
2013-04-20 03:57:00,35.2,31.1,30.18,South,180,1.0,2.0,85,0.00,,,0.00,meteohub,2013-04-20 10:57:00,
2013-04-20 04:02:00,35.1,30.9,30.19,SW,225,2.0,3.0,85,0.00,,,0.00,meteohub,2013-04-20 11:02:00,
2013-04-20 04:07:00,34.7,30.4,30.18,South,180,1.0,3.0,84,0.00,,,0.00,meteohub,2013-04-20 11:07:00,
2013-04-20 04:12:00,34.5,30.2,30.18,South,180,0.0,3.0,84,0.00,,,0.00,meteohub,2013-04-20 11:12:00,
2013-04-20 04:17:00,34.5,30.2,30.18,South,180,0.0,2.0,84,0.00,,,0.00,meteohub,2013-04-20 11:17:00,
2013-04-20 04:22:00,34.3,30.0,30.18,SW,225,2.0,2.0,84,0.00,,,0.00,meteohub,2013-04-20 11:22:00,
2013-04-20 04:27:00,34.2,29.8,30.18,SW,225,1.0,2.0,84,0.00,,,0.00,meteohub,2013-04-20 11:27:00,
2013-04-20 04:32:00,34.0,29.7,30.18,SE,135,0.0,2.0,84,0.00,,,0.00,meteohub,2013-04-20 11:32:00,
2013-04-20 04:37:00,33.8,29.5,30.18,SE,135,1.0,2.0,84,0.00,,,0.00,meteohub,2013-04-20 11:37:00,
2013-04-20 04:42:00,33.8,29.5,30.19,SW,225,2.0,2.0,84,0.00,,,0.00,meteohub,2013-04-20 11:42:00,
2013-04-20 04:47:00,33.6,29.7,30.19,SW,225,0.0,2.0,85,0.00,,,0.00,meteohub,2013-04-20 11:47:00,
2013-04-20 04:52:00,33.8,29.8,30.18,SW,225,0.0,2.0,85,0.00,,,0.00,meteohub,2013-04-20 11:52:00,
2013-04-20 04:57:00,33.8,29.8,30.18,SW,225,1.0,2.0,85,0.00,,,0.00,meteohub,2013-04-20 11:57:00,
2013-04-20 05:02:00,33.8,30.0,30.19,SE,135,2.0,2.0,86,0.00,,,0.00,meteohub,2013-04-20 12:02:00,
2013-04-20 05:07:00,33.8,30.0,30.19,SE,135,0.0,2.0,86,0.00,,,0.00,meteohub,2013-04-20 12:07:00,
2013-04-20 05:12:00,33.8,30.0,30.19,SW,225,2.0,2.0,86,0.00,,,0.00,meteohub,2013-04-20 12:12:00,
2013-04-20 05:17:00,33.8,30.4,30.18,East,90,2.0,2.0,87,0.00,,,0.00,meteohub,2013-04-20 12:17:00,
2013-04-20 05:22:00,33.8,30.4,30.18,East,90,2.0,2.0,87,0.00,,,0.00,meteohub,2013-04-20 12:22:00,
2013-04-20 05:27:00,34.2,30.7,30.19,East,90,1.0,2.0,87,0.00,,,0.00,meteohub,2013-04-20 12:27:00,
2013-04-20 05:32:00,34.2,30.7,30.18,South,180,1.0,2.0,87,0.00,,,0.00,meteohub,2013-04-20 12:32:00,
2013-04-20 05:37:00,34.3,31.1,30.19,ESE,113,1.0,2.0,88,0.00,,,0.00,meteohub,2013-04-20 12:37:00,
2013-04-20 05:42:00,34.3,31.1,30.19,SE,135,2.0,2.0,88,0.00,,,0.00,meteohub,2013-04-20 12:42:00,
2013-04-20 05:47:00,34.3,31.1,30.18,SE,135,2.0,2.0,88,0.00,,,0.00,meteohub,2013-04-20 12:47:00,
2013-04-20 05:53:00,34.5,31.3,30.18,SE,135,2.0,2.0,88,0.00,,,0.00,meteohub,2013-04-20 12:53:00,
2013-04-20 05:59:00,34.9,31.6,30.19,South,180,1.0,2.0,88,0.00,,,0.00,meteohub,2013-04-20 12:59:00,
2013-04-20 06:05:00,35.1,31.8,30.19,West,270,1.0,2.0,88,0.00,,,0.00,meteohub,2013-04-20 13:05:00,
2013-04-20 06:11:00,35.1,31.8,30.19,South,180,1.0,3.0,88,0.00,,,0.00,meteohub,2013-04-20 13:11:00,
2013-04-20 06:17:00,35.1,31.8,30.19,SE,135,2.0,3.0,88,0.00,,,0.00,meteohub,2013-04-20 13:17:00,
2013-04-20 06:22:00,34.9,31.5,30.18,SE,135,2.0,2.0,87,0.00,,,0.00,meteohub,2013-04-20 13:22:00,
2013-04-20 06:27:00,34.9,31.5,30.19,South,180,2.0,3.0,87,0.00,,,0.00,meteohub,2013-04-20 13:27:00,
2013-04-20 06:32:00,34.5,31.1,30.19,SE,135,2.0,3.0,87,0.00,,,0.00,meteohub,2013-04-20 13:32:00,
2013-04-20 06:37:00,34.3,30.6,30.19,SW,225,0.0,3.0,86,0.00,,,0.00,meteohub,2013-04-20 13:37:00,
2013-04-20 06:42:00,34.3,30.6,30.19,SE,135,2.0,2.0,86,0.00,,,0.00,meteohub,2013-04-20 13:42:00,
2013-04-20 06:47:00,34.2,30.4,30.19,West,270,0.0,2.0,86,0.00,,,0.00,meteohub,2013-04-20 13:47:00,
2013-04-20 06:52:00,34.3,30.6,30.19,East,90,2.0,2.0,86,0.00,,,0.00,meteohub,2013-04-20 13:52:00,
2013-04-20 06:57:00,34.3,30.6,30.19,East,90,3.0,3.0,86,0.00,,,0.00,meteohub,2013-04-20 13:57:00,
2013-04-20 07:02:00,34.5,30.7,30.20,SE,135,2.0,3.0,86,0.00,,,0.00,meteohub,2013-04-20 14:02:00,
2013-04-20 07:07:00,34.5,30.7,30.19,East,90,1.0,3.0,86,0.00,,,0.00,meteohub,2013-04-20 14:07:00,
2013-04-20 07:12:00,34.9,31.1,30.20,SE,135,2.0,3.0,86,0.00,,,0.00,meteohub,2013-04-20 14:12:00,
2013-04-20 07:17:00,35.1,31.6,30.20,SE,135,3.0,3.0,87,0.00,,,0.00,meteohub,2013-04-20 14:17:00,
2013-04-20 07:22:00,35.6,31.8,30.20,NE,45,1.0,4.0,86,0.00,,,0.00,meteohub,2013-04-20 14:22:00,
2013-04-20 07:27:00,36.0,32.2,30.20,South,180,2.0,4.0,86,0.00,,,0.00,meteohub,2013-04-20 14:27:00,
2013-04-20 07:32:00,36.1,32.0,30.20,NW,315,2.0,4.0,85,0.00,,,0.00,meteohub,2013-04-20 14:32:00,
2013-04-20 07:37:00,36.7,32.5,30.19,WSW,248,2.0,3.0,85,0.00,,,0.00,meteohub,2013-04-20 14:37:00,
2013-04-20 07:42:00,37.4,34.5,30.20,SE,135,2.0,3.0,89,0.00,,,0.00,meteohub,2013-04-20 14:42:00,
2013-04-20 07:47:00,38.5,35.6,30.20,South,180,2.0,3.0,89,0.00,,,0.00,meteohub,2013-04-20 14:47:00,
2013-04-20 07:52:00,39.6,36.3,30.20,SW,225,2.0,3.0,88,0.00,,,0.00,meteohub,2013-04-20 14:52:00,
2013-04-20 07:57:00,40.6,37.0,30.20,South,180,2.0,3.0,87,0.00,,,0.00,meteohub,2013-04-20 14:57:00,
2013-04-20 08:02:00,41.7,37.6,30.20,SE,135,2.0,3.0,85,0.00,,,0.00,meteohub,2013-04-20 15:02:00,
2013-04-20 08:07:00,42.8,37.9,30.20,East,90,2.0,3.0,83,0.00,,,0.00,meteohub,2013-04-20 15:07:00,
2013-04-20 08:12:00,43.7,37.9,30.20,ESE,113,3.0,3.0,80,0.00,,,0.00,meteohub,2013-04-20 15:12:00,
2013-04-20 08:17:00,44.4,38.3,30.20,SW,225,2.0,4.0,79,0.00,,,0.00,meteohub,2013-04-20 15:17:00,
2013-04-20 08:22:00,45.0,37.9,30.20,East,90,2.0,4.0,76,0.00,,,0.00,meteohub,2013-04-20 15:22:00,
2013-04-20 08:27:00,45.5,37.8,30.20,SSE,158,2.0,4.0,74,0.00,,,0.00,meteohub,2013-04-20 15:27:00,
2013-04-20 08:32:00,46.4,38.3,30.20,WSW,248,2.0,3.0,73,0.00,,,0.00,meteohub,2013-04-20 15:32:00,
2013-04-20 08:37:00,47.3,38.7,30.19,ENE,68,3.0,3.0,72,0.00,,,0.00,meteohub,2013-04-20 15:37:00,
2013-04-20 08:42:00,48.6,38.8,30.19,NW,315,2.0,4.0,69,0.00,,,0.00,meteohub,2013-04-20 15:42:00,
2013-04-20 08:47:00,49.5,37.0,30.19,West,270,4.0,5.0,62,0.00,,,0.00,meteohub,2013-04-20 15:47:00,
2013-04-20 08:52:00,49.8,36.1,30.19,SE,135,2.0,8.0,59,0.00,,,0.00,meteohub,2013-04-20 15:52:00,
2013-04-20 08:57:00,50.2,34.7,30.19,NW,315,9.0,9.0,55,0.00,,,0.00,meteohub,2013-04-20 15:57:00,
2013-04-20 09:02:00,50.4,33.4,30.19,SW,225,6.0,9.0,52,0.00,,,0.00,meteohub,2013-04-20 16:02:00,
2013-04-20 09:07:00,50.5,33.6,30.19,East,90,5.0,10.0,52,0.00,,,0.00,meteohub,2013-04-20 16:07:00,
2013-04-20 09:12:00,50.9,33.4,30.19,SW,225,4.0,10.0,51,0.00,,,0.00,meteohub,2013-04-20 16:12:00,
2013-04-20 09:17:00,51.4,34.0,30.19,NE,45,4.0,9.0,51,0.00,,,0.00,meteohub,2013-04-20 16:17:00,
2013-04-20 09:22:00,51.6,33.6,30.19,East,90,4.0,9.0,50,0.00,,,0.00,meteohub,2013-04-20 16:22:00,
2013-04-20 09:27:00,52.2,34.2,30.19,North,0,4.0,7.0,50,0.00,,,0.00,meteohub,2013-04-20 16:27:00,
2013-04-20 09:32:00,52.3,32.2,30.19,SW,225,3.0,10.0,46,0.00,,,0.00,meteohub,2013-04-20 16:32:00,
2013-04-20 09:37:00,52.3,32.2,30.19,SW,225,7.0,10.0,46,0.00,,,0.00,meteohub,2013-04-20 16:37:00,
2013-04-20 09:42:00,52.5,31.8,30.19,West,270,6.0,10.0,45,0.00,,,0.00,meteohub,2013-04-20 16:42:00,
2013-04-20 09:47:00,52.5,32.4,30.19,South,180,3.0,8.0,46,0.00,,,0.00,meteohub,2013-04-20 16:47:00,
2013-04-20 09:52:00,53.1,32.9,30.19,SW,225,7.0,8.0,46,0.00,,,0.00,meteohub,2013-04-20 16:52:00,
2013-04-20 09:57:00,53.2,31.8,30.19,SW,225,10.0,10.0,44,0.00,,,0.00,meteohub,2013-04-20 16:57:00,
2013-04-20 10:02:00,52.7,29.7,30.19,NW,315,9.0,11.0,41,0.00,,,0.00,meteohub,2013-04-20 17:02:00,
2013-04-20 10:07:00,52.3,29.8,30.19,NW,315,6.0,13.0,42,0.00,,,0.00,meteohub,2013-04-20 17:07:00,
2013-04-20 10:12:00,52.9,30.9,30.19,West,270,10.0,13.0,43,0.00,,,0.00,meteohub,2013-04-20 17:12:00,
2013-04-20 10:17:00,53.2,31.3,30.19,NW,315,7.0,13.0,43,0.00,,,0.00,meteohub,2013-04-20 17:17:00,
2013-04-20 10:22:00,53.2,30.7,30.19,West,270,9.0,10.0,42,0.00,,,0.00,meteohub,2013-04-20 17:22:00,
2013-04-20 10:27:00,53.4,31.5,30.19,West,270,8.0,11.0,43,0.00,,,0.00,meteohub,2013-04-20 17:27:00,
2013-04-20 10:32:00,53.6,30.4,30.19,West,270,5.0,11.0,41,0.00,,,0.00,meteohub,2013-04-20 17:32:00,
2013-04-20 10:37:00,53.8,31.3,30.19,NW,315,14.0,14.0,42,0.00,,,0.00,meteohub,2013-04-20 17:37:00,
2013-04-20 10:42:00,53.8,30.0,30.18,SE,135,5.0,14.0,40,0.00,,,0.00,meteohub,2013-04-20 17:42:00,
2013-04-20 10:47:00,54.3,30.6,30.18,NW,315,9.0,17.0,40,0.00,,,0.00,meteohub,2013-04-20 17:47:00,
2013-04-20 10:52:00,54.5,30.7,30.18,SW,225,10.0,17.0,40,0.00,,,0.00,meteohub,2013-04-20 17:52:00,
2013-04-20 10:57:00,54.3,30.6,30.19,SW,225,7.0,14.0,40,0.00,,,0.00,meteohub,2013-04-20 17:57:00,
2013-04-20 11:02:00,54.5,31.3,30.19,NW,315,11.0,13.0,41,0.00,,,0.00,meteohub,2013-04-20 18:02:00,
2013-04-20 11:07:00,54.9,30.4,30.19,NW,315,4.0,13.0,39,0.00,,,0.00,meteohub,2013-04-20 18:07:00,
2013-04-20 11:12:00,55.4,28.9,30.19,NW,315,8.0,13.0,36,0.00,,,0.00,meteohub,2013-04-20 18:12:00,
2013-04-20 11:17:00,55.6,29.1,30.19,North,0,8.0,11.0,36,0.00,,,0.00,meteohub,2013-04-20 18:17:00,
2013-04-20 11:22:00,55.6,29.1,30.19,NW,315,10.0,11.0,36,0.00,,,0.00,meteohub,2013-04-20 18:22:00,
2013-04-20 11:27:00,55.0,28.6,30.19,NW,315,10.0,11.0,36,0.00,,,0.00,meteohub,2013-04-20 18:27:00,
2013-04-20 11:32:00,54.9,29.1,30.19,NW,315,11.0,12.0,37,0.00,,,0.00,meteohub,2013-04-20 18:32:00,
2013-04-20 11:37:00,54.9,29.7,30.19,NW,315,13.0,13.0,38,0.00,,,0.00,meteohub,2013-04-20 18:37:00,
2013-04-20 11:42:00,55.6,31.6,30.19,NW,315,8.0,17.0,40,0.00,,,0.00,meteohub,2013-04-20 18:42:00,
2013-04-20 11:47:00,55.8,29.8,30.19,NW,315,11.0,17.0,37,0.00,,,0.00,meteohub,2013-04-20 18:47:00,
2013-04-20 11:52:00,55.9,30.7,30.19,NNE,23,11.0,13.0,38,0.00,,,0.00,meteohub,2013-04-20 18:52:00,
2013-04-20 11:57:00,55.9,30.0,30.19,North,0,8.0,11.0,37,0.00,,,0.00,meteohub,2013-04-20 18:57:00,
2013-04-20 12:02:00,55.6,29.7,30.19,North,0,12.0,12.0,37,0.00,,,0.00,meteohub,2013-04-20 19:02:00,
2013-04-20 12:07:00,55.9,30.7,30.19,SW,225,3.0,12.0,38,0.00,,,0.00,meteohub,2013-04-20 19:07:00,
2013-04-20 12:12:00,56.3,31.1,30.19,NNW,338,9.0,12.0,38,0.00,,,0.00,meteohub,2013-04-20 19:12:00,
2013-04-20 12:17:00,56.1,32.2,30.18,NE,45,7.0,12.0,40,0.00,,,0.00,meteohub,2013-04-20 19:17:00,
2013-04-20 12:22:00,56.8,34.0,30.18,SE,135,6.0,11.0,42,0.00,,,0.00,meteohub,2013-04-20 19:22:00,
2013-04-20 12:27:00,57.2,31.8,30.18,NW,315,7.0,11.0,38,0.00,,,0.00,meteohub,2013-04-20 19:27:00,
2013-04-20 12:32:00,57.7,31.6,30.18,NW,315,3.0,12.0,37,0.00,,,0.00,meteohub,2013-04-20 19:32:00,
2013-04-20 12:37:00,58.1,31.3,30.18,NW,315,9.0,12.0,36,0.00,,,0.00,meteohub,2013-04-20 19:37:00,
2013-04-20 12:42:00,57.4,27.7,30.18,NW,315,7.0,10.0,32,0.00,,,0.00,meteohub,2013-04-20 19:42:00,
2013-04-20 12:47:00,57.9,29.7,30.17,SW,225,3.0,11.0,34,0.00,,,0.00,meteohub,2013-04-20 19:47:00,
2013-04-20 12:52:00,58.5,30.9,30.17,East,90,3.0,11.0,35,0.00,,,0.00,meteohub,2013-04-20 19:52:00,
2013-04-20 12:57:00,59.2,30.7,30.17,SW,225,5.0,11.0,34,0.00,,,0.00,meteohub,2013-04-20 19:57:00,
2013-04-20 13:02:00,58.8,30.6,30.17,West,270,10.0,10.0,34,0.00,,,0.00,meteohub,2013-04-20 20:02:00,
2013-04-20 13:07:00,58.5,30.2,30.17,NW,315,8.0,11.0,34,0.00,,,0.00,meteohub,2013-04-20 20:07:00,
2013-04-20 13:12:00,58.3,30.0,30.17,WNW,293,10.0,11.0,34,0.00,,,0.00,meteohub,2013-04-20 20:12:00,
2013-04-20 13:17:00,58.3,31.5,30.16,SW,225,5.0,12.0,36,0.00,,,0.00,meteohub,2013-04-20 20:17:00,
2013-04-20 13:22:00,58.6,31.1,30.16,North,0,12.0,12.0,35,0.00,,,0.00,meteohub,2013-04-20 20:22:00,
2013-04-20 13:27:00,57.7,29.5,30.16,NW,315,8.0,12.0,34,0.00,,,0.00,meteohub,2013-04-20 20:27:00,
2013-04-20 13:32:00,57.7,29.5,30.16,NW,315,6.0,12.0,34,0.00,,,0.00,meteohub,2013-04-20 20:32:00,
2013-04-20 13:37:00,58.3,30.0,30.16,West,270,11.0,14.0,34,0.00,,,0.00,meteohub,2013-04-20 20:37:00,
2013-04-20 13:42:00,58.3,29.3,30.17,NW,315,4.0,15.0,33,0.00,,,0.00,meteohub,2013-04-20 20:42:00,
2013-04-20 13:47:00,58.8,30.6,30.16,WNW,293,8.0,15.0,34,0.00,,,0.00,meteohub,2013-04-20 20:47:00,
2013-04-20 13:52:00,58.3,28.6,30.16,SW,225,11.0,15.0,32,0.00,,,0.00,meteohub,2013-04-20 20:52:00,
2013-04-20 13:57:00,58.3,29.3,30.16,North,0,10.0,12.0,33,0.00,,,0.00,meteohub,2013-04-20 20:57:00,
2013-04-20 14:02:00,57.9,28.2,30.15,North,0,16.0,16.0,32,0.00,,,0.00,meteohub,2013-04-20 21:02:00,
2013-04-20 14:07:00,57.7,28.0,30.15,East,90,7.0,16.0,32,0.00,,,0.00,meteohub,2013-04-20 21:07:00,
2013-04-20 14:12:00,58.1,28.4,30.15,South,180,8.0,16.0,32,0.00,,,0.00,meteohub,2013-04-20 21:12:00,
2013-04-20 14:17:00,58.6,29.7,30.15,NW,315,11.0,16.0,33,0.00,,,0.00,meteohub,2013-04-20 21:17:00,
2013-04-20 14:22:00,57.9,27.5,30.15,South,180,8.0,14.0,31,0.00,,,0.00,meteohub,2013-04-20 21:22:00,
2013-04-20 14:27:00,58.3,28.6,30.16,SE,135,5.0,13.0,32,0.00,,,0.00,meteohub,2013-04-20 21:27:00,
2013-04-20 14:32:00,59.0,28.4,30.15,North,0,8.0,14.0,31,0.00,,,0.00,meteohub,2013-04-20 21:32:00,
2013-04-20 14:37:00,59.4,28.8,30.15,NW,315,9.0,14.0,31,0.00,,,0.00,meteohub,2013-04-20 21:37:00,
2013-04-20 14:42:00,59.4,29.5,30.15,West,270,4.0,14.0,32,0.00,,,0.00,meteohub,2013-04-20 21:42:00,
2013-04-20 14:47:00,59.2,27.7,30.15,NW,315,4.0,11.0,30,0.00,,,0.00,meteohub,2013-04-20 21:47:00,
2013-04-20 14:52:00,59.7,28.9,30.15,SSE,158,6.0,12.0,31,0.00,,,0.00,meteohub,2013-04-20 21:52:00,
2013-04-20 14:57:00,59.5,28.9,30.15,NW,315,6.0,12.0,31,0.00,,,0.00,meteohub,2013-04-20 21:57:00,
2013-04-20 15:02:00,59.9,29.1,30.15,SE,135,7.0,11.0,31,0.00,,,0.00,meteohub,2013-04-20 22:02:00,
2013-04-20 15:07:00,60.1,28.6,30.15,NE,45,5.0,11.0,30,0.00,,,0.00,meteohub,2013-04-20 22:07:00,
2013-04-20 15:12:00,60.1,28.6,30.15,West,270,8.0,11.0,30,0.00,,,0.00,meteohub,2013-04-20 22:12:00,
2013-04-20 15:17:00,59.7,28.9,30.14,North,0,10.0,11.0,31,0.00,,,0.00,meteohub,2013-04-20 22:17:00,
2013-04-20 15:22:00,59.7,30.6,30.14,East,90,3.0,11.0,33,0.00,,,0.00,meteohub,2013-04-20 22:22:00,
2013-04-20 15:27:00,60.3,30.2,30.14,SW,225,8.0,11.0,32,0.00,,,0.00,meteohub,2013-04-20 22:27:00,
2013-04-20 15:32:00,59.4,28.8,30.14,NW,315,6.0,16.0,31,0.00,,,0.00,meteohub,2013-04-20 22:32:00,
2013-04-20 15:37:00,59.9,30.7,30.14,WNW,293,5.0,16.0,33,0.00,,,0.00,meteohub,2013-04-20 22:37:00,
2013-04-20 15:42:00,60.4,31.3,30.14,NW,315,6.0,16.0,33,0.00,,,0.00,meteohub,2013-04-20 22:42:00,
2013-04-20 15:47:00,60.6,31.3,30.14,South,180,3.0,11.0,33,0.00,,,0.00,meteohub,2013-04-20 22:47:00,
2013-04-20 15:52:00,60.4,30.4,30.14,West,270,3.0,11.0,32,0.00,,,0.00,meteohub,2013-04-20 22:52:00,
2013-04-20 15:57:00,60.4,30.4,30.14,North,0,7.0,11.0,32,0.00,,,0.00,meteohub,2013-04-20 22:57:00,
2013-04-20 16:02:00,60.3,30.2,30.14,North,0,6.0,11.0,32,0.00,,,0.00,meteohub,2013-04-20 23:02:00,
2013-04-20 16:07:00,60.6,30.6,30.14,NW,315,8.0,11.0,32,0.00,,,0.00,meteohub,2013-04-20 23:07:00,
2013-04-20 16:12:00,60.6,31.3,30.14,NW,315,6.0,11.0,33,0.00,,,0.00,meteohub,2013-04-20 23:12:00,
2013-04-20 16:17:00,60.1,30.9,30.14,WNW,293,4.0,13.0,33,0.00,,,0.00,meteohub,2013-04-20 23:17:00,
2013-04-20 16:22:00,60.1,31.6,30.14,NE,45,4.0,13.0,34,0.00,,,0.00,meteohub,2013-04-20 23:22:00,
2013-04-20 16:27:00,60.4,32.0,30.14,North,0,6.0,13.0,34,0.00,,,0.00,meteohub,2013-04-20 23:27:00,
2013-04-20 16:32:00,60.3,31.8,30.14,SW,225,5.0,11.0,34,0.00,,,0.00,meteohub,2013-04-20 23:32:00,
2013-04-20 16:37:00,59.9,30.7,30.14,West,270,11.0,11.0,33,0.00,,,0.00,meteohub,2013-04-20 23:37:00,
2013-04-20 16:42:00,59.4,30.2,30.14,North,0,4.0,12.0,33,0.00,,,0.00,meteohub,2013-04-20 23:42:00,
2013-04-20 16:47:00,59.9,32.2,30.14,NW,315,5.0,12.0,35,0.00,,,0.00,meteohub,2013-04-20 23:47:00,
2013-04-20 16:52:00,60.1,32.4,30.14,North,0,4.0,15.0,35,0.00,,,0.00,meteohub,2013-04-20 23:52:00,
2013-04-20 16:57:00,59.9,32.2,30.14,NW,315,8.0,15.0,35,0.00,,,0.00,meteohub,2013-04-20 23:57:00,
2013-04-20 17:02:00,59.5,31.8,30.14,West,270,8.0,15.0,35,0.00,,,0.00,meteohub,2013-04-21 00:02:00,
2013-04-20 17:07:00,58.8,31.3,30.14,West,270,8.0,13.0,35,0.00,,,0.00,meteohub,2013-04-21 00:07:00,
2013-04-20 17:12:00,58.6,32.4,30.14,SE,135,7.0,14.0,37,0.00,,,0.00,meteohub,2013-04-21 00:12:00,
2013-04-20 17:17:00,59.0,31.5,30.14,NW,315,7.0,14.0,35,0.00,,,0.00,meteohub,2013-04-21 00:17:00,
2013-04-20 17:22:00,58.5,30.9,30.14,West,270,11.0,14.0,35,0.00,,,0.00,meteohub,2013-04-21 00:22:00,
2013-04-20 17:27:00,58.3,32.2,30.13,NW,315,5.0,11.0,37,0.00,,,0.00,meteohub,2013-04-21 00:27:00,
2013-04-20 17:32:00,57.7,30.9,30.13,NW,315,8.0,11.0,36,0.00,,,0.00,meteohub,2013-04-21 00:32:00,
2013-04-20 17:37:00,57.6,31.5,30.13,SW,225,8.0,15.0,37,0.00,,,0.00,meteohub,2013-04-21 00:37:00,
2013-04-20 17:42:00,57.2,30.6,30.13,NE,45,4.0,15.0,36,0.00,,,0.00,meteohub,2013-04-21 00:42:00,
2013-04-20 17:47:00,57.4,31.3,30.14,SW,225,4.0,10.0,37,0.00,,,0.00,meteohub,2013-04-21 00:47:00,
2013-04-20 17:52:00,57.2,31.1,30.13,WNW,293,8.0,10.0,37,0.00,,,0.00,meteohub,2013-04-21 00:52:00,
2013-04-20 17:57:00,56.8,31.5,30.13,West,270,8.0,10.0,38,0.00,,,0.00,meteohub,2013-04-21 00:57:00,
2013-04-20 18:02:00,56.5,31.8,30.13,SE,135,10.0,10.0,39,0.00,,,0.00,meteohub,2013-04-21 01:02:00,
2013-04-20 18:07:00,56.5,32.4,30.13,NW,315,8.0,10.0,40,0.00,,,0.00,meteohub,2013-04-21 01:07:00,
2013-04-20 18:12:00,55.9,31.3,30.14,South,180,4.0,14.0,39,0.00,,,0.00,meteohub,2013-04-21 01:12:00,
2013-04-20 18:17:00,55.8,31.8,30.13,NW,315,4.0,14.0,40,0.00,,,0.00,meteohub,2013-04-21 01:17:00,
2013-04-20 18:22:00,55.4,32.0,30.14,North,0,9.0,14.0,41,0.00,,,0.00,meteohub,2013-04-21 01:22:00,
2013-04-20 18:27:00,55.2,31.3,30.13,North,0,6.0,9.0,40,0.00,,,0.00,meteohub,2013-04-21 01:27:00,
2013-04-20 18:32:00,55.2,32.5,30.13,NW,315,8.0,9.0,42,0.00,,,0.00,meteohub,2013-04-21 01:32:00,
2013-04-20 18:37:00,54.9,31.6,30.13,West,270,5.0,10.0,41,0.00,,,0.00,meteohub,2013-04-21 01:37:00,
2013-04-20 18:42:00,54.7,32.5,30.13,NW,315,8.0,10.0,43,0.00,,,0.00,meteohub,2013-04-21 01:42:00,
2013-04-20 18:47:00,54.3,32.9,30.13,NW,315,7.0,10.0,44,0.00,,,0.00,meteohub,2013-04-21 01:47:00,
2013-04-20 18:52:00,54.1,32.7,30.13,SW,225,5.0,9.0,44,0.00,,,0.00,meteohub,2013-04-21 01:52:00,
2013-04-20 18:57:00,54.0,33.6,30.13,NW,315,6.0,9.0,46,0.00,,,0.00,meteohub,2013-04-21 01:57:00,
2013-04-20 19:02:00,53.8,34.0,30.13,SW,225,6.0,8.0,47,0.00,,,0.00,meteohub,2013-04-21 02:02:00,
2013-04-20 19:07:00,53.4,34.7,30.13,SW,225,5.0,8.0,49,0.00,,,0.00,meteohub,2013-04-21 02:07:00,
2013-04-20 19:12:00,53.2,34.5,30.13,NW,315,6.0,8.0,49,0.00,,,0.00,meteohub,2013-04-21 02:12:00,
2013-04-20 19:17:00,52.9,34.2,30.13,NW,315,5.0,8.0,49,0.00,,,0.00,meteohub,2013-04-21 02:17:00,
2013-04-20 19:22:00,52.7,34.2,30.14,NW,315,8.0,8.0,49,0.00,,,0.00,meteohub,2013-04-21 02:22:00,
2013-04-20 19:27:00,52.5,34.0,30.14,SW,225,4.0,8.0,49,0.00,,,0.00,meteohub,2013-04-21 02:27:00,
2013-04-20 19:32:00,52.2,34.2,30.13,NW,315,6.0,8.0,50,0.00,,,0.00,meteohub,2013-04-21 02:32:00,
2013-04-20 19:37:00,51.8,33.8,30.13,West,270,4.0,8.0,50,0.00,,,0.00,meteohub,2013-04-21 02:37:00,
2013-04-20 19:42:00,51.6,34.5,30.13,NW,315,2.0,6.0,52,0.00,,,0.00,meteohub,2013-04-21 02:42:00,
2013-04-20 19:47:00,51.1,34.5,30.13,SW,225,3.0,6.0,53,0.00,,,0.00,meteohub,2013-04-21 02:47:00,
2013-04-20 19:52:00,50.9,34.3,30.14,SE,135,1.0,6.0,53,0.00,,,0.00,meteohub,2013-04-21 02:52:00,
2013-04-20 19:57:00,50.5,34.5,30.14,East,90,2.0,4.0,54,0.00,,,0.00,meteohub,2013-04-21 02:57:00,
2013-04-20 20:02:00,50.0,34.5,30.14,NW,315,3.0,5.0,55,0.00,,,0.00,meteohub,2013-04-21 03:02:00,
2013-04-20 20:07:00,49.6,35.1,30.14,NW,315,2.0,5.0,57,0.00,,,0.00,meteohub,2013-04-21 03:07:00,
2013-04-20 20:12:00,49.3,35.1,30.14,SW,225,2.0,5.0,58,0.00,,,0.00,meteohub,2013-04-21 03:12:00,
2013-04-20 20:17:00,48.9,35.2,30.14,North,0,1.0,4.0,59,0.00,,,0.00,meteohub,2013-04-21 03:17:00,
2013-04-20 20:22:00,48.6,34.9,30.14,NW,315,2.0,4.0,59,0.00,,,0.00,meteohub,2013-04-21 03:22:00,
2013-04-20 20:27:00,48.0,34.9,30.15,North,0,0.0,4.0,60,0.00,,,0.00,meteohub,2013-04-21 03:27:00,
2013-04-20 20:32:00,47.7,34.9,30.15,NW,315,2.0,2.0,61,0.00,,,0.00,meteohub,2013-04-21 03:32:00,
2013-04-20 20:37:00,47.5,34.7,30.15,NW,315,2.0,3.0,61,0.00,,,0.00,meteohub,2013-04-21 03:37:00,
2013-04-20 20:42:00,47.1,34.3,30.15,West,270,2.0,3.0,61,0.00,,,0.00,meteohub,2013-04-21 03:42:00,
2013-04-20 20:47:00,46.9,34.5,30.16,NW,315,1.0,3.0,62,0.00,,,0.00,meteohub,2013-04-21 03:47:00,
2013-04-20 20:52:00,46.6,34.3,30.15,NW,315,1.0,2.0,62,0.00,,,0.00,meteohub,2013-04-21 03:52:00,
2013-04-20 20:57:00,46.4,34.2,30.16,NW,315,2.0,2.0,62,0.00,,,0.00,meteohub,2013-04-21 03:57:00,
2013-04-20 21:02:00,46.0,33.3,30.16,NW,315,2.0,2.0,61,0.00,,,0.00,meteohub,2013-04-21 04:02:00,
2013-04-20 21:03:00,45.9,33.3,30.16,NW,315,2.0,2.0,61,0.00,,,0.00,meteohub,2013-04-21 04:03:00,
2013-04-20 21:05:00,45.7,33.1,30.16,NW,315,1.0,2.0,61,0.00,,,0.00,meteohub,2013-04-21 04:05:00,
2013-04-20 21:07:00,45.7,33.1,30.16,NW,315,2.0,2.0,61,0.00,,,0.00,meteohub,2013-04-21 04:07:00,
2013-04-20 21:12:00,45.5,32.9,30.16,NW,315,0.0,2.0,61,0.00,,,0.00,meteohub,2013-04-21 04:12:00,
2013-04-20 21:17:00,45.1,32.9,30.16,NW,315,0.0,2.0,62,0.00,,,0.00,meteohub,2013-04-21 04:17:00,
2013-04-20 21:22:00,44.6,32.4,30.16,North,0,0.0,2.0,62,0.00,,,0.00,meteohub,2013-04-21 04:22:00,
2013-04-20 21:27:00,44.2,32.4,30.16,West,270,0.0,1.0,63,0.00,,,0.00,meteohub,2013-04-21 04:27:00,
2013-04-20 21:32:00,43.9,32.5,30.16,NW,315,2.0,2.0,64,0.00,,,0.00,meteohub,2013-04-21 04:32:00,
2013-04-20 21:37:00,43.9,32.9,30.17,NW,315,1.0,2.0,65,0.00,,,0.00,meteohub,2013-04-21 04:37:00,
2013-04-20 21:42:00,43.9,33.3,30.16,NW,315,2.0,2.0,66,0.00,,,0.00,meteohub,2013-04-21 04:42:00,
2013-04-20 21:47:00,43.9,33.3,30.17,North,0,0.0,2.0,66,0.00,,,0.00,meteohub,2013-04-21 04:47:00,
2013-04-20 21:52:00,43.9,33.3,30.17,NW,315,0.0,2.0,66,0.00,,,0.00,meteohub,2013-04-21 04:52:00,
2013-04-20 21:57:00,43.7,33.1,30.17,NW,315,1.0,2.0,66,0.00,,,0.00,meteohub,2013-04-21 04:57:00,
2013-04-20 22:02:00,43.5,32.9,30.17,NW,315,0.0,2.0,66,0.00,,,0.00,meteohub,2013-04-21 05:02:00,
2013-04-20 22:07:00,43.3,33.1,30.17,NW,315,0.0,2.0,67,0.00,,,0.00,meteohub,2013-04-21 05:07:00,
2013-04-20 22:12:00,43.2,32.9,30.17,South,180,1.0,2.0,67,0.00,,,0.00,meteohub,2013-04-21 05:12:00,
2013-04-20 22:17:00,43.0,32.7,30.16,South,180,0.0,1.0,67,0.00,,,0.00,meteohub,2013-04-21 05:17:00,
2013-04-20 22:22:00,42.6,33.1,30.16,South,180,1.0,1.0,69,0.00,,,0.00,meteohub,2013-04-21 05:22:00,
2013-04-20 22:27:00,42.3,33.3,30.17,South,180,0.0,1.0,70,0.00,,,0.00,meteohub,2013-04-21 05:27:00,
2013-04-20 22:32:00,42.1,33.1,30.16,South,180,1.0,1.0,70,0.00,,,0.00,meteohub,2013-04-21 05:32:00,
2013-04-20 22:37:00,41.7,32.7,30.16,SW,225,0.0,1.0,70,0.00,,,0.00,meteohub,2013-04-21 05:37:00,
2013-04-20 22:42:00,41.5,32.5,30.16,SW,225,0.0,1.0,70,0.00,,,0.00,meteohub,2013-04-21 05:42:00,
2013-04-20 22:47:00,41.4,32.7,30.16,SW,225,1.0,2.0,71,0.00,,,0.00,meteohub,2013-04-21 05:47:00,
2013-04-20 22:52:00,41.2,32.5,30.17,SW,225,2.0,2.0,71,0.00,,,0.00,meteohub,2013-04-21 05:52:00,
2013-04-20 22:57:00,41.2,32.9,30.16,SW,225,2.0,2.0,72,0.00,,,0.00,meteohub,2013-04-21 05:57:00,
2013-04-20 23:02:00,41.0,32.7,30.16,SW,225,0.0,2.0,72,0.00,,,0.00,meteohub,2013-04-21 06:02:00,
2013-04-20 23:07:00,40.8,32.9,30.16,SW,225,1.0,2.0,73,0.00,,,0.00,meteohub,2013-04-21 06:07:00,
2013-04-20 23:12:00,40.6,32.7,30.16,SW,225,2.0,2.0,73,0.00,,,0.00,meteohub,2013-04-21 06:12:00,
2013-04-20 23:17:00,40.5,32.5,30.16,South,180,1.0,2.0,73,0.00,,,0.00,meteohub,2013-04-21 06:17:00,
2013-04-20 23:22:00,40.3,32.7,30.16,South,180,1.0,2.0,74,0.00,,,0.00,meteohub,2013-04-21 06:22:00,
2013-04-20 23:27:00,40.3,33.1,30.16,SW,225,0.0,2.0,75,0.00,,,0.00,meteohub,2013-04-21 06:27:00,
2013-04-20 23:32:00,40.1,33.1,30.16,SW,225,1.0,2.0,76,0.00,,,0.00,meteohub,2013-04-21 06:32:00,
2013-04-20 23:37:00,39.9,32.9,30.16,SW,225,2.0,2.0,76,0.00,,,0.00,meteohub,2013-04-21 06:37:00,
2013-04-20 23:42:00,39.7,32.7,30.16,South,180,2.0,2.0,76,0.00,,,0.00,meteohub,2013-04-21 06:42:00,
2013-04-20 23:47:00,39.6,32.5,30.15,SW,225,2.0,2.0,76,0.00,,,0.00,meteohub,2013-04-21 06:47:00,
2013-04-20 23:52:00,39.6,32.9,30.15,South,180,1.0,2.0,77,0.00,,,0.00,meteohub,2013-04-21 06:52:00,
2013-04-20 23:57:00,39.2,32.5,30.15,NE,45,1.0,2.0,77,0.00,,,0.00,meteohub,2013-04-21 06:57:00,